• In Österreich
  • Länderverzeichnis
  • Für 7 Tage
  • Wassertemperatur
  • Satellitenkarten
  • Wetterkarte
  • News
  • Widgets
  • user-avatar
    Anmelden

    Stündliche Wetter Chymbarivka

    Heute, 22 Oktober, Montag

    Zeit Temperatur Niederschläge Wind Luftdruck Luftfeuchtigkeit
    00:00 +7°C° 0 mm 2 m/S 741 mmHg 78%
    01:00 +6°C° 0 mm 2 m/S 741 mmHg 80%
    02:00 +5°C° 0 mm 2 m/S 741 mmHg 81%
    03:00 +5°C° 0 mm 2 m/S 741 mmHg 82%
    04:00 +5°C° 0 mm 2 m/S 741 mmHg 83%
    05:00 +4°C° 0 mm 2 m/S 741 mmHg 84%
    06:00 +5°C° 0 mm 2 m/S 741 mmHg 82%
    07:00 +5°C° 0 mm 2 m/S 742 mmHg 80%
    08:00 +5°C° 0 mm 2 m/S 742 mmHg 78%
    09:00 +7°C° 0 mm 2 m/S 742 mmHg 71%
    10:00 +8°C° 0 mm 2 m/S 741 mmHg 63%
    11:00 +10°C° 0 mm 2 m/S 741 mmHg 56%
    12:00 +12°C° 0 mm 2 m/S 741 mmHg 53%
    13:00 +12°C° 0 mm 2 m/S 740 mmHg 50%
    14:00 +13°C° 0 mm 2 m/S 740 mmHg 47%
    15:00 +12°C° 0 mm 2 m/S 740 mmHg 50%
    16:00 +11°C° 0 mm 1 m/S 739 mmHg 53%
    17:00 +11°C° 0 mm 1 m/S 739 mmHg 56%
    18:00 +10°C° 0 mm 1 m/S 739 mmHg 59%
    19:00 +9°C° 0 mm 1 m/S 739 mmHg 61%
    20:00 +8°C° 0 mm 1 m/S 739 mmHg 64%
    21:00 +8°C° 0 mm 1 m/S 739 mmHg 66%
    22:00 +7°C° 0 mm 1 m/S 739 mmHg 68%
    23:00 +7°C° 0 mm 1 m/S 739 mmHg 69%

    Morgen, 23 Oktober, Dienstag

    Zeit Temperatur Niederschläge Wind Luftdruck Luftfeuchtigkeit
    00:00 +6°C° 0 mm 2 m/S 738 mmHg 71%
    01:00 +5°C° 0 mm 2 m/S 738 mmHg 73%
    02:00 +5°C° 0 mm 2 m/S 738 mmHg 75%
    03:00 +5°C° 0 mm 2 m/S 738 mmHg 76%
    04:00 +4°C° 0 mm 2 m/S 737 mmHg 77%
    05:00 +3°C° 0 mm 3 m/S 737 mmHg 79%
    06:00 +4°C° 0.1 mm 3 m/S 737 mmHg 78%
    07:00 +4°C° 0.1 mm 3 m/S 736 mmHg 78%
    08:00 +5°C° 0.1 mm 4 m/S 736 mmHg 77%
    09:00 +6°C° 0.1 mm 4 m/S 736 mmHg 76%
    10:00 +7°C° 0.1 mm 5 m/S 736 mmHg 75%
    11:00 +8°C° 0.1 mm 5 m/S 736 mmHg 75%
    12:00 +8°C° 0 mm 5 m/S 735 mmHg 72%
    13:00 +9°C° 0 mm 5 m/S 734 mmHg 68%
    14:00 +9°C° 0 mm 5 m/S 734 mmHg 65%
    15:00 +10°C° 0 mm 4 m/S 733 mmHg 66%
    16:00 +9°C° 0 mm 3 m/S 732 mmHg 66%
    17:00 +9°C° 0 mm 2 m/S 731 mmHg 67%
    18:00 +9°C° 0.4 mm 2 m/S 731 mmHg 71%
    19:00 +8°C° 0.4 mm 2 m/S 730 mmHg 75%
    20:00 +8°C° 0.4 mm 2 m/S 729 mmHg 79%
    21:00 +8°C° 0.4 mm 3 m/S 728 mmHg 80%
    22:00 +8°C° 0.4 mm 3 m/S 727 mmHg 81%
    23:00 +7°C° 0.4 mm 4 m/S 726 mmHg 81%

    übermorgen, 24 Oktober, Mittwoch

    Zeit Temperatur Niederschläge Wind Luftdruck Luftfeuchtigkeit
    00:00 +7°C° 0.1 mm 4 m/S 725 mmHg 78%
    01:00 +7°C° 0.1 mm 5 m/S 724 mmHg 76%
    02:00 +7°C° 0.1 mm 5 m/S 723 mmHg 73%
    03:00 +7°C° 0.3 mm 6 m/S 722 mmHg 73%
    04:00 +7°C° 0.3 mm 6 m/S 721 mmHg 72%
    05:00 +7°C° 0.3 mm 6 m/S 720 mmHg 72%
    06:00 +8°C° 1.2 mm 6 m/S 719 mmHg 73%
    07:00 +8°C° 1.2 mm 6 m/S 718 mmHg 73%
    08:00 +8°C° 1.2 mm 6 m/S 717 mmHg 73%
    09:00 +8°C° 1.5 mm 7 m/S 717 mmHg 69%
    10:00 +6°C° 1.5 mm 9 m/S 717 mmHg 66%
    11:00 +6°C° 1.5 mm 10 m/S 717 mmHg 62%
    12:00 +6°C° 0.1 mm 11 m/S 717 mmHg 58%
    13:00 +4°C° 0.1 mm 11 m/S 718 mmHg 55%
    14:00 +4°C° 0.1 mm 12 m/S 718 mmHg 52%
    15:00 +3°C° 0.3 mm 12 m/S 719 mmHg 57%
    16:00 +3°C° 0.3 mm 12 m/S 719 mmHg 61%
    17:00 +2°C° 0.3 mm 12 m/S 719 mmHg 66%
    18:00 +2°C° 0.2 mm 12 m/S 720 mmHg 66%
    19:00 +2°C° 0.2 mm 12 m/S 720 mmHg 66%
    20:00 +2°C° 0.2 mm 12 m/S 720 mmHg 66%
    21:00 +2°C° 0.1 mm 12 m/S 721 mmHg 67%
    22:00 +2°C° 0.1 mm 12 m/S 721 mmHg 68%
    23:00 0°C° 0.1 mm 12 m/S 721 mmHg 68%

    25 Oktober, Donnerstag

    Zeit Temperatur Niederschläge Wind Luftdruck Luftfeuchtigkeit
    00:00 +2°C° 0.3 mm 12 m/S 722 mmHg 70%
    01:00 +2°C° 0.3 mm 11 m/S 722 mmHg 72%
    02:00 +2°C° 0.3 mm 11 m/S 722 mmHg 74%
    03:00 +2°C° 0.4 mm 11 m/S 723 mmHg 73%
    04:00 +2°C° 0.4 mm 12 m/S 723 mmHg 73%
    05:00 +2°C° 0.4 mm 12 m/S 723 mmHg 73%
    06:00 +2°C° 0.1 mm 12 m/S 724 mmHg 73%
    07:00 +2°C° 0.1 mm 11 m/S 725 mmHg 72%
    08:00 +1°C° 0.1 mm 11 m/S 725 mmHg 72%
    09:00 +2°C° 0 mm 10 m/S 726 mmHg 69%
    10:00 +2°C° 0 mm 10 m/S 726 mmHg 66%
    11:00 +3°C° 0 mm 9 m/S 726 mmHg 63%
    12:00 +3°C° 0 mm 9 m/S 726 mmHg 61%
    13:00 +3°C° 0 mm 9 m/S 726 mmHg 59%
    14:00 +3°C° 0 mm 9 m/S 726 mmHg 58%
    15:00 +4°C° 0.7 mm 8 m/S 725 mmHg 63%
    16:00 +3°C° 0.7 mm 6 m/S 725 mmHg 69%
    17:00 +3°C° 0.7 mm 5 m/S 724 mmHg 75%
    18:00 +4°C° 0.7 mm 7 m/S 724 mmHg 76%
    19:00 +5°C° 0.7 mm 8 m/S 724 mmHg 78%
    20:00 +6°C° 0.7 mm 9 m/S 723 mmHg 79%
    21:00 +6°C° 0.1 mm 9 m/S 724 mmHg 79%
    22:00 +5°C° 0.1 mm 9 m/S 724 mmHg 78%
    23:00 +5°C° 0.1 mm 9 m/S 724 mmHg 77%

    26 Oktober, Freitag

    Zeit Temperatur Niederschläge Wind Luftdruck Luftfeuchtigkeit
    00:00 +5°C° 0 mm 9 m/S 725 mmHg 78%
    01:00 +3°C° 0 mm 9 m/S 726 mmHg 79%
    02:00 +4°C° 0 mm 8 m/S 727 mmHg 80%
    03:00 +4°C° 0 mm 8 m/S 727 mmHg 81%
    04:00 +4°C° 0 mm 7 m/S 728 mmHg 82%
    05:00 +4°C° 0 mm 7 m/S 729 mmHg 83%
    06:00 +4°C° 0.1 mm 7 m/S 729 mmHg 82%
    07:00 +4°C° 0.1 mm 6 m/S 730 mmHg 82%
    08:00 +4°C° 0.1 mm 6 m/S 730 mmHg 81%
    09:00 +5°C° 0 mm 6 m/S 731 mmHg 78%
    10:00 +7°C° 0 mm 6 m/S 731 mmHg 74%
    11:00 +7°C° 0 mm 6 m/S 731 mmHg 71%
    12:00 +8°C° 0 mm 6 m/S 731 mmHg 68%
    13:00 +8°C° 0 mm 6 m/S 732 mmHg 66%
    14:00 +8°C° 0 mm 5 m/S 732 mmHg 64%
    15:00 +8°C° 0 mm 4 m/S 732 mmHg 66%
    16:00 +8°C° 0 mm 3 m/S 732 mmHg 69%
    17:00 +8°C° 0 mm 2 m/S 733 mmHg 71%
    18:00 +7°C° 0 mm 2 m/S 733 mmHg 73%
    19:00 +8°C° 0 mm 1 m/S 733 mmHg 75%
    20:00 +7°C° 0 mm 1 m/S 733 mmHg 77%
    21:00 +6°C° 0 mm 2 m/S 733 mmHg 78%
    22:00 +6°C° 0 mm 2 m/S 734 mmHg 79%
    23:00 +5°C° 0 mm 3 m/S 734 mmHg 80%

    27 Oktober, Samstag

    Zeit Temperatur Niederschläge Wind Luftdruck Luftfeuchtigkeit
    00:00 +4°C° 0 mm 3 m/S 733 mmHg 80%
    01:00 +4°C° 0 mm 3 m/S 733 mmHg 80%
    02:00 +4°C° 0 mm 3 m/S 733 mmHg 80%
    03:00 +4°C° 0 mm 4 m/S 733 mmHg 80%
    04:00 +4°C° 0 mm 4 m/S 732 mmHg 80%
    05:00 +4°C° 0 mm 4 m/S 732 mmHg 80%
    06:00 +4°C° 0 mm 4 m/S 732 mmHg 78%
    07:00 +4°C° 0 mm 4 m/S 731 mmHg 76%
    08:00 +5°C° 0 mm 4 m/S 731 mmHg 74%
    09:00 +6°C° 0 mm 4 m/S 731 mmHg 71%
    10:00 +7°C° 0 mm 5 m/S 731 mmHg 68%
    11:00 +9°C° 0 mm 5 m/S 731 mmHg 65%
    12:00 +10°C° 0.2 mm 4 m/S 730 mmHg 66%
    13:00 +11°C° 0.2 mm 4 m/S 730 mmHg 66%
    14:00 +11°C° 0.2 mm 3 m/S 730 mmHg 67%
    15:00 +11°C° 0 mm 3 m/S 730 mmHg 66%
    16:00 +12°C° 0 mm 3 m/S 729 mmHg 65%
    17:00 +12°C° 0 mm 3 m/S 729 mmHg 64%
    18:00 +12°C° 0 mm 3 m/S 729 mmHg 65%
    19:00 +12°C° 0 mm 3 m/S 729 mmHg 65%
    20:00 +11°C° 0 mm 3 m/S 729 mmHg 66%
    21:00 +11°C° 0 mm 3 m/S 729 mmHg 66%
    22:00 +11°C° 0 mm 3 m/S 729 mmHg 66%
    23:00 +11°C° 0 mm 3 m/S 729 mmHg 66%

    28 Oktober, Sonntag

    Zeit Temperatur Niederschläge Wind Luftdruck Luftfeuchtigkeit
    00:00 +11°C° 0 mm 3 m/S 729 mmHg 66%
    01:00 +11°C° 0 mm 3 m/S 729 mmHg 66%
    02:00 +11°C° 0 mm 4 m/S 729 mmHg 66%
    03:00 +11°C° 0 mm 4 m/S 729 mmHg 66%
    04:00 +11°C° 0 mm 4 m/S 729 mmHg 66%
    05:00 +11°C° 0 mm 4 m/S 728 mmHg 66%
    06:00 +11°C° 0 mm 4 m/S 728 mmHg 65%
    07:00 +11°C° 0 mm 4 m/S 729 mmHg 63%
    08:00 +12°C° 0 mm 5 m/S 729 mmHg 61%
    09:00 +14°C° 0 mm 5 m/S 729 mmHg 56%
    10:00 +15°C° 0 mm 5 m/S 729 mmHg 52%
    11:00 +17°C° 0 mm 5 m/S 730 mmHg 47%
    12:00 +20°C° 0 mm 5 m/S 730 mmHg 46%
    13:00 +21°C° 0 mm 5 m/S 730 mmHg 44%
    14:00 +22°C° 0 mm 5 m/S 730 mmHg 43%
    15:00 +21°C° 0 mm 4 m/S 730 mmHg 48%
    16:00 +20°C° 0 mm 3 m/S 730 mmHg 53%
    17:00 +18°C° 0 mm 2 m/S 731 mmHg 58%
    18:00 +18°C° 0 mm 2 m/S 731 mmHg 59%
    19:00 +17°C° 0 mm 2 m/S 731 mmHg 61%
    20:00 +18°C° 0 mm 1 m/S 731 mmHg 63%
    21:00 +16°C° 0.1 mm 1 m/S 732 mmHg 66%
    22:00 +16°C° 0.1 mm 1 m/S 732 mmHg 68%
    23:00 +16°C° 0.1 mm 1 m/S 732 mmHg 71%
    Mehr zeigen